Zurück zum Katalog

THORAD DELTA 1 DEB

AktivLEO
NORAD 8167·DEBRIS·🇺🇸 United States

Gestartet Nov 15, 1974 von Vandenberg Space Force Base

Loading…

Nächste Überflüge (nächste 24 Stunden)

TLE

AktuellSource: Space-Track

Epoche: Sep 14, 2026, 14:14 UTC

1 08167U 74089AH  26257.59325389  .00003541  00000-0  67300-2 0  9997
2 08167 101.3681 127.5140 0131717  65.8234 313.0613 13.35517831439327

Verfolge THORAD DELTA 1 DEB in Echtzeit mit AllMySat

Download on the App Store